Location: Cincinnati Observatory Center
(39.1389°N, 84.4225°W)
Time: 08:19:53
(UTC-05:00)

Daily predictions for brighter satellites

Satellite Brightness Start Highest point End
(mag) Time Altitude Azimuth Time Altitude Azimuth Time Altitude Azimuth
Cosmos 2333 Rocket 3.1 18:07:13 10° SW 18:12:40 50° WNW 18:18:11 10° NNE
Cosmos 304 Rocket 3.9 18:09:34 10° S 18:14:18 62° ESE 18:19:03 10° NNE
Lacrosse 5 rocket 1.7 18:11:59 10° NW 18:15:44 63° SW 18:19:41 10° SSE
Cosmos 1515 Rocket 4.5 18:11:51 10° NNW 18:16:13 56° W 18:20:32 10° S
CZ-4 R/B 4.4 18:14:57 10° SSE 18:19:03 70° ENE 18:23:11 10° N
Cosmos 2278 Rocket 2.7 18:13:43 10° NNW 18:19:22 70° WSW 18:25:00 10° SSE
Tiangong 1 3.0 18:17:58 10° S 18:20:02 17° SE 18:22:05 10° ESE
Cosmos 1455 3.4 18:18:24 10° NNE 18:21:23 21° ENE 18:24:22 10° SE
Cosmos 1805 Rocket 3.9 18:17:13 10° SSE 18:21:26 44° E 18:25:41 10° NNE
Cosmos 1356 Rocket 4.0 18:19:50 10° SSE 18:23:25 33° E 18:27:01 10° NNE
SKYMED 2 3.8 18:22:16 10° NNE 18:26:29 49° E 18:30:41 10° S
Cosmos 1538 Rocket 4.2 18:24:50 10° S 18:30:00 57° ESE 18:35:15 10° NNE
Thor Agena Rocket 3.8 18:25:35 10° N 18:30:49 75° WNW 18:35:56 10° SSW
Sich 1 3.6 18:28:11 10° SSE 18:32:17 37° E 18:36:21 10° NNE
SPOT 3 Rocket 4.1 18:29:13 10° S 18:34:19 65° WSW 18:39:28 10° NNW
MSX 4.1 18:29:13 10° S 18:34:54 76° WSW 18:40:40 10° NNW
Cosmos 1703 3.2 18:31:44 10° S 18:35:34 64° E 18:39:25 10° NNE
Coronas F rocket 2.5 18:35:20 10° SE 18:37:07 19° E 18:37:55 16° ENE
Cosmos 2180 Rocket 4.4 18:33:40 10° N 18:39:51 74° E 18:46:05 10° SSE
Meteor 2-10 4.2 18:36:20 10° NNW 18:41:30 77° W 18:46:48 10° S
Cosmos 1300 4.3 18:38:03 10° NNW 18:41:38 38° W 18:45:12 10° SSW
Cosmos 2237 Rocket 3.6 18:36:27 10° SW 18:41:39 37° WNW 18:46:53 10° N
SOZ 4.1 18:40:59 10° SW 18:43:09 75° SE 18:44:55 17° NE
SJ-6B 3.8 18:40:27 10° SE 18:43:55 27° ENE 18:47:27 10° NNE
Timation 1 Rocket 4.5 18:37:58 10° NNW 18:44:01 84° WSW 18:50:01 10° SSE
Cosmos 1633 Rocket 3.4 18:39:54 10° SSE 18:44:04 44° E 18:48:15 10° NNE
Cosmos 2369 Rocket 3.7 18:42:30 10° NNE 18:45:47 15° NE 18:47:04 14° ENE
CZ-4 R/B 3.9 18:44:47 10° SSW 18:48:00 25° W 18:51:15 10° NW
Cosmos 1092 Rocket 4.4 18:44:03 10° SSE 18:49:56 42° E 18:55:50 10° NNE
SL-16 R/B 2.4 18:45:03 10° SSW 18:50:41 74° WNW 18:56:22 10° NNE
Lacrosse 5 4.1 18:53:22 10° N 18:54:14 10° N 18:55:06 10° NNE
Cosmos 773 Rocket 3.9 18:56:12 10° S 19:01:19 74° ESE 19:06:32 10° NNE
USA 215 3.8 18:56:43 16° E 19:01:32 40° NNE 19:07:33 10° NW
ALOS 3.1 18:57:49 10° SE 19:01:44 27° ENE 19:05:39 10° NNE
Cosmos 1484 Rocket 4.0 18:59:30 10° S 19:03:17 47° W 19:07:10 10° NNW
Cosmos 2297 4.3 19:00:01 10° NNW 19:05:40 62° WSW 19:11:18 10° S
Meteor 1-28 Rocket 3.3 19:02:14 10° N 19:05:57 78° WNW 19:09:40 10° SSW
METEOR-M 4.1 19:03:56 10° SSE 19:09:14 66° ENE 19:14:33 10° N
Cosmos 1862 Rocket 4.3 19:05:21 10° NNE 19:09:14 30° ENE 19:13:02 10° SE
Cosmos 292 Rocket 3.9 19:06:29 10° S 19:11:05 52° ESE 19:14:24 18° NE
FENGYUN 3A 4.1 19:06:36 10° SE 19:11:27 36° ENE 19:16:20 10° N
Cosmos 1707 Rocket 3.9 19:07:27 10° NNW 19:11:46 66° W 19:16:04 10° S
Genesis I 4.4 19:09:45 10° SSE 19:12:42 24° ESE 19:12:42 24° ESE
NOAA 12 4.0 19:08:52 10° SSE 19:14:06 79° ENE 19:19:23 10° N
COSMO-SKYMED 1 3.7 19:10:21 10° N 19:14:30 46° WNW 19:18:38 10° SW
Cosmos 2112 Rocket 4.2 19:15:44 10° S 19:20:41 47° ESE 19:23:18 26° NE
Cosmos 1666 Rocket 4.3 19:16:52 10° SSW 19:21:07 55° W 19:25:26 10° N
Cosmos 1869 3.2 19:20:42 10° N 19:24:46 82° E 19:28:48 10° S
Cosmos 1943 3.7 19:22:38 10° S 19:27:45 36° ESE 19:28:35 34° E
Cosmos 1626 4.0 19:25:23 10° SW 19:28:45 32° WNW 19:32:09 10° NNW
Lacrosse 4 Rocket 1.2 19:25:20 10° NNW 19:29:24 86° WSW 19:33:02 13° SSE
ATLAS 5 CENTAUR R/B 3.9 19:26:05 10° N 19:29:30 18° NNE 19:29:30 18° NNE
Cosmos 1933 Rocket 3.4 19:28:12 10° S 19:32:37 70° E 19:35:24 22° NNE
Resurs 01 Rocket 1.6 19:32:47 10° SSE 19:37:08 57° ENE 19:41:30 10° N
SL-19 R/B 4.2 19:35:05 10° SSE 19:40:56 78° ENE 19:46:32 10° NNW
H-2A ROCKET BODY 3.7 19:19:24 10° WSW 19:41:54 44° SSW 19:45:25 24° SE
USA 229 DEB 4.1 19:39:59 10° SW 19:46:44 60° NW 19:51:58 18° NNE
USA 229 4.1 19:40:04 10° SW 19:46:50 61° NW 19:52:02 18° NNE
FREGAT/IRIS 4.1 19:44:35 10° S 19:47:27 38° W 19:50:21 10° NNW
Cosmos 1943 Rocket 4.0 19:43:08 10° N 19:44:32 15° NNE 19:44:32 15° NNE
Iridium 4 Rocket 3.6 19:45:13 10° SSW 19:49:36 57° W 19:53:45 10° N
Cosmos 1627 Rocket 4.3 19:43:53 10° S 19:50:04 81° E 19:56:13 10° N
Cosmos 1655 Rocket 3.9 19:44:40 10° S 19:50:57 63° E 19:57:12 10° NNE
Spot 2 Rocket 3.3 19:46:22 10° SSE 19:51:24 79° ENE 19:56:27 10° N
Cosmos 1470 Rocket 4.0 19:49:58 10° SSW 19:54:16 59° W 19:57:06 20° N
Cosmos 1242 Rocket 3.4 19:51:30 10° NNW 19:54:52 46° W 19:58:13 10° S
Cosmos 1603 4.2 19:50:10 10° SW 19:55:40 59° WNW 19:59:29 20° N
Tiangong 1 3.2 19:52:50 10° WSW 19:54:18 26° WSW 19:54:18 26° WSW
CZ-4C R/B 4.1 19:52:15 10° NNW 19:56:24 21° NNE 19:56:24 21° NNE
NOSS 3-1 (A) 3.5 19:54:54 10° SSW 20:00:05 53° SE 20:00:05 53° SE
FengYun 1-2 T 4.3 19:57:35 10° S 20:03:07 74° WSW 20:08:39 10° NNW
Cosmos 2026 Rocket 4.1 20:08:56 10° SSW 20:15:08 71° W 20:21:15 10° N
Cosmos 2369 Rocket 2.8 20:24:51 10° NNW 20:28:57 49° NNW 20:28:57 49° NNW
NOSS 3-1 (C) 3.7 20:31:56 10° SW 20:37:28 62° WNW 20:37:28 62° WNW
Lacrosse 5 4.3 20:34:56 10° NNW 20:35:34 13° NNW 20:35:34 13° NNW
ALOS 4.1 20:35:04 10° SSW 20:39:04 28° W 20:43:06 10° NW
USA 215 3.4 20:44:05 65° SW 20:44:17 66° SW 20:50:49 10° NW
CZ-3A R/B 4.4 20:52:11 10° WNW 20:56:34 36° SW 21:05:34 10° SSE
ATLAS 5 CENTAUR R/B 4.4 21:09:35 10° NNW 21:11:05 19° NNW 21:11:05 19° NNW
